Location: Casa Rossa
(45.2389°N, 12.2056°E)
Time: 03:56:16
(UTC+00:00)

Cosmos 1975 - Pass Details

Date: 14 July 2020
Orbit: 542 x 561 km, 82.5° (Epoch: 11 August)

Event Time Altitude Azimuth Distance (km) Brightness Sun altitude
Exits shadow 02:10:20 - 166° (SSE) 2,249 5.6 -12.4°
Reaches altitude 10° 02:11:27 10° 162° (SSE) 1,810 5.2 -12.3°
Maximum altitude 02:15:10 39° 93° (E) 821 4.1 -11.8°
Drops below altitude 10° 02:18:54 10° 23° (NNE) 1,819 6.7 -11.4°
Sets 02:21:09 0° 16° (NNE) 2,716 7.6 -11.1°
